Regional Weather Roundup
Issued by NWS Albany, NY

Home | Current Version | Previous Version | Text Only | Print | Product List | Glossary Off
Versions: 1 2 3 4 5 6 7 8 9 10 11 12 13 14 15 16 17 18 19 20 21 22 23 24 25 26 27 28 29 30 31 32 33 34 35 36 37 38 39 40 41 42 43 44 45 46 47 48 49 50

000
ASUS41 KALY 020610
RWRALY

NEW YORK STATE HOURLY WEATHER ROUNDUP
NATIONAL WEATHER SERVICE ALBANY NY
200 AM EDT SAT AUG 02 2014

NOTE: "FAIR" INDICATES FEW OR NO CLOUDS BELOW 12,000 FEET WITH NO
SIGNIFICANT WEATHER AND/OR NO OBSTRUCTIONS TO VISIBILITY.

NYZ032-033-038>043-046>054-057>066-NYZ062>081-020700-
EAST


CITY           SKY/WX    TMP DP  RH WIND       PRES   REMARKS
ALBANY         CLOUDY    70  64  81 S6        30.18F
GLENS FALLS    CLOUDY    65  61  87 N3        30.19S
POUGHKEEPSIE   CLOUDY    69  66  90 CALM      30.18F FOG
NEWBURGH       MOCLDY    68  66  94 CALM      30.21F
MONTGOMERY     CLOUDY    64  62  93 CALM      30.19F
WHITE PLAINS   CLOUDY    68  65  90 CALM      30.19F
ISLIP          LGT RAIN  72  68  87 E3        30.18F
NEW YORK CITY  CLOUDY    73  63  70 SE6       30.17F
CENTRAL PARK   CLOUDY    72  63  73 CALM      30.20F
$$

NYZ005>009-017-018-044>046-055-056-020700-
CENTRAL


CITY           SKY/WX    TMP DP  RH WIND       PRES   REMARKS
FULTON         PTCLDY    65  61  87 SE3       30.12F
SYRACUSE       MOCLDY    70  63  78 SE5       30.12F
ROME           MOCLDY    67  62  84 E6        30.17F
ELMIRA         MOCLDY    62  61  96 CALM      30.16F FOG
BINGHAMTON     CLOUDY    64  61  90 S5        30.20S
MONTICELLO     CLOUDY    63  63 100 CALM      30.23F
$$

NYZ026>034-041>043-020700-
NORTH


CITY           SKY/WX    TMP DP  RH WIND       PRES   REMARKS
WATERTOWN      PTCLDY    64  59  83 SE3       30.12F HAZE
FORT DRUM      NOT AVBL
MASSENA        CLEAR     58  57  97 CALM      30.14S
SARANAC LAKE   MOCLDY    52  51  97 CALM      30.20S FOG
PLATTSBURGH    PTCLDY    60  60 100 CALM      30.15S FOG
$$

NYZ001>004-010>016-019>021-020700-
WEST


CITY           SKY/WX    TMP DP  RH WIND       PRES   REMARKS
NIAGARA FALLS  PTCLDY    62  60  93 CALM      30.11F
BUFFALO        PTCLDY    67  61  81 S6        30.12F
DUNKIRK        MOCLDY    70  57  63 S5        30.11F
JAMESTOWN      MOCLDY    61  57  88 CALM      30.17S
WELLSVILLE     CLOUDY    64  59  83 SE5       30.21F
ROCHESTER      MOCLDY    65  62  90 CALM      30.13S
PENN YAN       MOCLDY    66  61  84 W5        30.14F
$$

             KEY
       WCI = WIND CHILL INDEX
       VSB = VISIBILITY
       HX  = HEAT INDEX
$$


USA.gov is the U.S. government's official web portal to all federal, state and local government web resources and services.